{"data":{"norad_id":63284,"intl_designator":"2025-053V","name":"STARLINK-33673","alt_names":[],"object_type":"PAYLOAD","status":"ACTIVE","operator":null,"country":"US","launch_date":"2025-03-15","launch_site_code":"AFETR","launch_vehicle":null,"mission":null,"orbit_class":"UNKNOWN","rcs_meters":null,"size_class":null,"mass_kg":null,"dimensions":null,"purposes":["comms"],"wikipedia_slug":null,"has_3d_model":false,"image_url":null,"decayed_at":null,"tle_current":{"epoch":"2026-05-25T01:31:01.211808Z","epoch_age_seconds":65638,"freshness":"FRESH","line1":"1 63284U 25053V   26145.06320847  .00027179  00000+0  99089-3 0  9999","line2":"2 63284  42.9966 162.6702 0000541 277.3954  82.6836 15.27668725 68075","mean_motion":15.27668725,"eccentricity":5.41e-5,"inclination_deg":42.9966,"raan_deg":162.6702,"arg_perigee_deg":277.3954,"mean_anomaly_deg":82.6836,"bstar":0.00099089,"rev_number":6807,"period_min":94.261273824271,"perigee_km":482.41225853395,"apogee_km":483.15461012494,"semimajor_km":6860.9204343294,"source":"CELESTRAK","updated_at":"2026-05-25T13:38:19.928301Z"}}}